Torna al catalogo

SL-12 R/B(2)

AttivoGEO
NORAD 23270·ROCKET BODY·🇷🇺 Russia

Lanciato Sep 21, 1994 da Baikonur Cosmodrome

Loading…

TLE

AggiornatoSource: Space-Track

Epoca: Sep 12, 2026, 19:34 UTC

1 23270U 94060D   26255.81589870 -.00000065  00000-0  00000-0 0  9991
2 23270  14.2294 349.4192 0007740 160.8334 209.4227  1.00053302116427

Traccia SL-12 R/B(2) in tempo reale con AllMySat

Download on the App Store